NUSAT-21 (ELISA) (48920 NORAD) Tracking and Keplerian Element Data

This shows tracking and keplerian element data for the satellite.

Feedback or suggestion? Click here.




ElementValue
Catalog48920
NameNUSAT-21 (ELISA)
Epoch Orbit1401
Epoch Day269.18358976
Epoch Year2021
RAAN36.776
Inclination97.3788
Eccentricity0.0017345
Argument of Perigee272.8651
Mean Anonmoly208.5303
Mean Motion15.27062255
Decay Rate3.084E-05
L11 48920U 21059AT 21269.18358976 .00003084 00000-0 11851-3 0 9991
L22 48920 97.3788 36.7760 0017345 272.8651 208.5303 15.27062255 14019

Live tracking and technical data element details for NUSAT-21 (ELISA) (NORAD 48920). NUSAT-21 (ELISA) can be tracked NOW for your location showing map with azimuth and elevation plus other details from your city location.

Track the satellite on the map from your city or location and see movement details for azimuth, elevation, latitude, longitude, range, height, and movement on the map or in text.







IsCatalogInMostPopularTable: catalog: 48920, numindb: 15
Update: records affected: 1



GetName: 48920 NUSAT-21 (ELISA)

Hit Count: updated at: Sun, 26 Sep 2021 15:15:07 GMT